Regional Weather Roundup
Issued by NWS

Home | Current Version | Previous Version | Text Only | Print | Product List | Glossary On
Versions: 1 2 3 4 5 6 7 8 9 10 11 12 13 14 15 16 17 18 19 20 21 22 23 24 25 26 27
000
ASUS42 KTBW 211515
RWRFL
FLORIDA REGIONAL WEATHER ROUNDUP
NATIONAL WEATHER SERVICE TAMPA BAY RUSKIN FL
1000 AM EST SAT JAN 21 2017

NOTE: "FAIR" INDICATES FEW OR NO CLOUDS BELOW 12,000 FEET WITH NO
SIGNIFICANT WEATHER AND/OR OBSTRUCTIONS TO VISIBILITY.

FLZ001>010-012>015-112-114-115-211600-
PANHANDLE FLORIDA

CITY           SKY/WX    TMP DP  RH WIND       PRES   REMARKS
PENSACOLA      CLOUDY    74  69  85 S16G29    29.73F
PENSACOLA NAS  CLOUDY    72  69  90 S15       29.73F FOG
MILTON NAS     LGT RAIN  71  68  90 NW24G41   29.76
CRESTVIEW      CLOUDY    74  68  81 SW20G30   29.77F
DUKE FIELD     PTSUNNY   73  70  88 S22G28    29.75F
VALPARAISO     CLOUDY    72  69  91 S20G29    29.75F
MARY ESTHER    PTSUNNY   73  63  70 S18       29.74F
TRI COUNTY     PTSUNNY   74  71  91 S14G22    29.77F
PANAMA CITY    CLOUDY    74  70  87 S14       29.80F
TYNDALL AFB    CLOUDY    72  70  94 S13       29.82S
APALACHICOLA   CLOUDY    72  72 100 S9        29.85R

STATION/POSITION SKY/WX   TEMP    WIND        PRES    WAVE   SWELL
                          AIR SEA DIR/SP/G            HT/PER HT/PER
                          (F)     (DEG/KT/KT) (MB)    (FT/S) (FT/S)
30.1N   87.6W              70 67  200/ 14/ 16 1007.5    5/ 6   2/12
28.8N   86.0W              77 75              1009.1    6/ 6
PANAMA CITY BEAC           69 67  160/ 13/ 15 1009.4F
TOWER C                    72     190/ 19/ 20 1011.3R
28.5N   84.5W              76 73  190/ 14/ 17 1011.2    4/ 5

$$
FLZ011-016>038-118-127-128-134-139-239-211600-
NORTH FLORIDA

CITY           SKY/WX    TMP DP  RH WIND       PRES   REMARKS
MARIANNA       MOSUNNY   74  70  87 S18G24    29.78F
TALLAHASSEE    CLOUDY    72  70  93 S10       29.86R
PERRY          MOSUNNY   75  69  81 S10       29.89R
CROSS CITY     PTSUNNY   73  68  83 S9        29.90R
LAKE CITY      CLOUDY    70  70 100 S6        29.91S
GAINESVILLE    SUNNY     72  71  97 S9        29.91F
WILLISTON      SUNNY     70  70 100 SE9       29.91F
PALATKA        FAIR      72  66  83 SW6       29.94R
MAYPORT NAS    CLOUDY    71  66  84 S5        29.92S
JACKSONVILLE   PTSUNNY   71  67  87 S6        29.92R
JAX NAS        PTSUNNY   69  65  86 S9        29.93S
FERNANDINA BEA FAIR      72  68  88 SW7       29.91R
ST AUGUSTINE   MOSUNNY   71  66  84 SW9       29.94S
PALM COAST     SUNNY     72  63  73 SW10G16   29.94S

STATION/POSITION SKY/WX   TEMP    WIND        PRES    WAVE   SWELL
                          AIR SEA DIR/SP/G            HT/PER HT/PER
                          (F)     (DEG/KT/KT) (MB)    (FT/S) (FT/S)
SHELL POINT      NOT AVBL
KEATON BEACH               68     160/ 14/ 17 1012.0R
CEDAR KEY                  69     180/ 14/ 18 1013.0R
FERNANDINA                 69 67  180/  3/  6 1013.7R
30.7N   81.3W                 63                N/A     2/13   2/13
MAYPORT                    69 65  230/  5/  7 1013.6R
31.4N   80.9W              63 61  180/  6/  8 1012.3    2/12   2/12
ST AUGUSTINE               72 63  220/ 10/ 12 1014.4R

$$
FLZ040-043>046-052-053-057-058-063-144-211600-
INTERIOR CENTRAL FLORIDA

CITY           SKY/WX    TMP DP  RH WIND       PRES   REMARKS
OCALA          SUNNY     72  61  68 S12       29.93F
THE VILLAGES     N/A     73  73 100 SE10      29.85F
LEESBURG       SUNNY     73  62  68 S9        29.97R
SANFORD        SUNNY     73  63  70 SW10      29.96R
ORLANDO EXEC   SUNNY     72  63  73 S12       29.97R
ORLANDO INTL   MOSUNNY   73  62  68 S10       29.97S
KISSIMMEE      SUNNY     73  64  73 S7        29.99R
WINTER HAVEN   SUNNY     71  62  73 S9        29.99R
LAKELAND       SUNNY     72  64  78 S8        29.99R
BARTOW         SUNNY     70  64  83 S8        29.99R
OKEECHOBEE     SUNNY     72  64  78 S8        30.00R

$$
FLZ041-047-054-059-064-141-147-211600-
EAST CENTRAL FLORIDA

CITY           SKY/WX    TMP DP  RH WIND       PRES   REMARKS
ORMOND BEACH   SUNNY     72  64  78 S13       29.95S
DAYTONA BEACH  PTSUNNY   71  65  81 S8        29.96R
DELAND         SUNNY     73  63  68 S12       29.96R
NEW SMYRNA BEA SUNNY     72  64  78 SW8       29.96R
JFK SPACE CTR  SUNNY     72  65  77 S12       29.96S
TITUSVILLE     SUNNY     73  63  68 S14       29.98R
CAPE CANAVERAL SUNNY     74  63  66 S13       29.96R
PATRICK AFB    SUNNY     73  64  73 SW9       29.98R
MELBOURNE      SUNNY     73  63  70 SW10      29.99R
VERO BEACH     SUNNY     74  64  71 S10       30.00R
FT PIERCE      SUNNY     75  64  68 S8        29.99R

STATION/POSITION SKY/WX   TEMP    WIND        PRES    WAVE   SWELL
                          AIR SEA DIR/SP/G            HT/PER HT/PER
                          (F)     (DEG/KT/KT) (MB)    (FT/S) (FT/S)
TRIDENT PIER     NOT AVBL
28.4N   80.5W                 70                N/A     2/13   2/13
27.5N   80.2W                 76                N/A     3/12   2/12

$$
FLZ050-056-061-142-242-148-248-149-249-151-251-155-255-
160-260-211600-
WEST CENTRAL FLORIDA

CITY           SKY/WX    TMP DP  RH WIND       PRES   REMARKS
CRYSTAL RIVER  FAIR      75  59  57 S7        29.93S
INVERNESS      FAIR      73  63  68 S9        29.94F
BROOKSVILLE    SUNNY     75  63  66 S15       29.95S
CLEARWATER AIR FAIR      73  61  64 S10G18    29.94S
ST PETE CLEARW MOSUNNY   75  61  61 S18       29.95R
TAMPA INTL     MOSUNNY   75  61  61 S13       29.96R
TAMPA EXEC     SUNNY     77  61  57 S9        29.97R
PLANT CITY     SUNNY     73  66  78 S8        29.99R
MACDILL AFB    SUNNY     71  70  96 W13       29.96R
PETER O KNIGHT PTSUNNY   75  66  73 S10       29.97R
ST PETERSBURG  SUNNY     70  65  84 S9        29.95R
SARASOTA         N/A     74  64  71 S13       29.95R
VENICE         FAIR      75  66  73 S15       29.97S

STATION/POSITION SKY/WX   TEMP    WIND        PRES    WAVE   SWELL
                          AIR SEA DIR/SP/G            HT/PER HT/PER
                          (F)     (DEG/KT/KT) (MB)    (FT/S) (FT/S)
27.3N   84.2W                 79                N/A     4/ 5
CLEARWATER BEACH                  170/ 12/ 14   N/A
MIDDLE TAMPA BAY           71     180/  9/ 11 1014.8R
VENICE                     71 69  150/ 12/ 14 1014.1R

$$
FLZ066-069-070-075>078-162-262-165-265-211600-
SOUTHWEST FLORIDA AND KEYS

CITY           SKY/WX    TMP DP  RH WIND       PRES   REMARKS
PUNTA GORDA    SUNNY     74  66  76 S13       30.00R
FT MYERS       SUNNY     75  66  73 S8        29.98R
SOUTHWEST INTL SUNNY     73  64  73 S7        29.99R
NAPLES         SUNNY     76  65  68 S9        29.97R
MARCO ISLAND   SUNNY     55 N/A N/A SE9       29.99R
MARATHON       SUNNY     81  67  62 S9G17     29.98R
KEY WEST NAS   MOSUNNY   79  64  60 S16       29.98R
KEY WEST INTL  SUNNY     78  65  63 S18       29.98R

STATION/POSITION SKY/WX   TEMP    WIND        PRES    WAVE   SWELL
                          AIR SEA DIR/SP/G            HT/PER HT/PER
                          (F)     (DEG/KT/KT) (MB)    (FT/S) (FT/S)
NAPLES                        70              1014.8R
26.0N   85.6W              76 75  160/ 17/ 21 1012.1R   3/ 5
DRY TORTUGAS               76     160/ 19/ 21 1014.9R
SAND KEY                   76     190/ 20/ 24 1015.4R
LONG KEY                   75 74  190/ 13/ 14 1015.3F
MOLASSES REEF              77 76  200/ 18/ 20 1015.3

$$
FLZ067-068-071>074-168-172>174-211600-
SOUTHEAST FLORIDA

CITY           SKY/WX    TMP DP  RH WIND       PRES   REMARKS
W PALM BEACH   MOSUNNY   77  62  59 S10       30.00R
BOCA RATON     SUNNY     75  66  73 S8        29.99R
FT LAUDER-EXEC MOSUNNY   77  65  66 S8        29.99R
FT LAUDERDALE  MOSUNNY   77  67  71 S6        29.98S
POMPANO BEACH  SUNNY     78  65  63 SE9       29.99R
PEMBROKE PINES SUNNY     76  66  71 S6        30.00S
OPA LOCKA      SUNNY     78  67  68 S9        30.00R
MIAMI          MOSUNNY   77  67  71 S8        29.99S
WEST KENDALL   PTSUNNY   76  67  73 SE7       29.99R
HOMESTEAD      PTSUNNY   76  74  95 SE9       29.99R

STATION/POSITION SKY/WX   TEMP    WIND        PRES    WAVE   SWELL
                          AIR SEA DIR/SP/G            HT/PER HT/PER
                          (F)     (DEG/KT/KT) (MB)    (FT/S) (FT/S)
PORT EVERGLADES            76     160/  5/  7 1015.7R
VIRGINIA KEY               76 80  180/  8/ 10 1016.1R
LAKE WORTH                 74 76  180/  9/ 10 1015.3R
FOWEY ROCKS                77 75  160/ 17/ 18 1015.9F

$$





USA.gov is the U.S. government's official web portal to all federal, state and local government web resources and services.